This is the latest recevied weather packets stored in our database for station/object DC1MPP-9. If no packets are shown the sender has not sent any weather packets the latest 10 day(s).
| Time | Temp. | Humidity | Pressure | Rain* | Wind** | Luminosity | Snow |
|---|---|---|---|---|---|---|---|
| 1777620867 | 12.78° C | 36% | 969 hPa | - | - | - | - |
| 1777620626 | 12.22° C | 36% | 969 hPa | - | - | - | - |
| 1777620385 | 12.22° C | 34% | 969 hPa | - | - | - | - |
| 1777620144 | 12.22° C | 35% | 969 hPa | - | - | - | - |
| 1777619903 | 12.22° C | 37% | 969 hPa | - | - | - | - |
| 1777619662 | 12.22° C | 34% | 969 hPa | - | - | - | - |
| 1777619420 | 11.67° C | 35% | 969 hPa | - | - | - | - |
| 1777619179 | 11.67° C | 34% | 969 hPa | - | - | - | - |
| 1777618938 | 11.67° C | 35% | 969 hPa | - | - | - | - |
| 1777618697 | 11.67° C | 35% | 969 hPa | - | - | - | - |
| 1777618456 | 11.11° C | 35% | 969 hPa | - | - | - | - |
| 1777618215 | 11.67° C | 36% | 969 hPa | - | - | - | - |
| 1777617974 | 11.67° C | 37% | 969 hPa | - | - | - | - |
| 1777617733 | 11.11° C | 40% | 969 hPa | - | - | - | - |
| 1777617492 | 11.11° C | 38% | 969 hPa | - | - | - | - |
| 1777617251 | 11.11° C | 38% | 969 hPa | - | - | - | - |
| 1777617010 | 10.56° C | 40% | 969 hPa | - | - | - | - |
| 1777616769 | 10.56° C | 39% | 969 hPa | - | - | - | - |
| 1777616528 | 10.56° C | 39% | 969 hPa | - | - | - | - |
| 1777616287 | 10.56° C | 40% | 969 hPa | - | - | - | - |
| 1777616046 | 10.56° C | 44% | 969 hPa | - | - | - | - |
| 1777615805 | 10° C | 42% | 969 hPa | - | - | - | - |
| 1777615564 | 10° C | 43% | 969 hPa | - | - | - | - |
| 1777615323 | 10° C | 45% | 969 hPa | - | - | - | - |
| 1777615082 | 8.89° C | 43% | 969 hPa | - | - | - | - |
* Rain since midnight (hover to see other rain measurements)
** Current wind speed in m/s (hover to see current wind gust speed)